This demonstration page uses our WeatherBlox Daily Observations layout. Learn more.

Left ArrowRight Arrow

Hourly Observations for September 27, 2016

Temp ( °F °C ) Dew Point ( °F °C ) Humidity (%) Winds ( mph kmh ) Pressure ( in mb ) Visibility ( mi km ) Precip ( " mm )
12:15 am 00:15 Cloudy 64 18 64 18 100 100 SSW 5 7 29.97 1015 10 16 N/A
12:35 am 00:35 Cloudy with Light Rain 64 18 64 18 100 100 S 3 6 29.97 1015 7 11 N/A
12:55 am 00:55 Cloudy with Light Rain 64 18 64 18 100 100 N N/A 29.97 1015 7 11 N/A
1:15 am 01:15 Cloudy with Light Rain 64 18 64 18 100 100 N N/A 29.97 1015 7 11 N/A
1:35 am 01:35 Cloudy with Light Rain 64 18 64 18 100 100 N N/A 29.97 1015 7 11 N/A
1:55 am 01:55 Cloudy with Light Rain 64 18 64 18 100 100 N N/A 29.97 1015 5 8 N/A
2:15 am 02:15 Cloudy 64 18 64 18 100 100 SSW 5 7 29.97 1015 7 11 N/A
2:35 am 02:35 Cloudy 64 18 64 18 100 100 S 6 9 29.97 1015 7 11 N/A
2:55 am 02:55 Cloudy 64 18 64 18 100 100 SSW 3 6 29.97 1015 7 11 N/A
3:15 am 03:15 Cloudy with Mist and Fog 64 18 64 18 100 100 SW 5 7 29.97 1015 5 8 N/A
3:35 am 03:35 Cloudy 64 18 64 18 100 100 SW 5 7 29.97 1015 7 11 N/A
3:55 am 03:55 Cloudy with Mist and Fog 64 18 64 18 100 100 N N/A 29.97 1015 5 8 N/A
4:15 am 04:15 Mostly Cloudy with Mist and Fog 64 18 64 18 100 100 N N/A 29.97 1015 5 8 N/A
4:35 am 04:35 Mostly Cloudy with Mist and Fog 64 18 64 18 100 100 N N/A 29.97 1015 4 6 N/A
4:55 am 04:55 Mostly Cloudy with Mist and Fog 64 18 64 18 100 100 N N/A 29.97 1015 5 8 N/A
5:15 am 05:15 Cloudy with Mist and Fog 64 18 64 18 100 100 N N/A 29.94 1014 5 8 N/A
5:35 am 05:35 Cloudy with Mist and Fog 64 18 64 18 100 100 N N/A 29.97 1015 5 8 N/A
5:55 am 05:55 Cloudy 64 18 64 18 100 100 NNW 5 7 29.97 1015 7 11 N/A
6:15 am 06:15 Cloudy 64 18 64 18 100 100 NNW 7 11 29.97 1015 10 16 N/A
6:35 am 06:35 Cloudy 64 18 63 17 94 94 N 6 9 29.97 1015 10 16 N/A
6:55 am 06:55 Mostly Cloudy 64 18 63 17 94 94 N 6 9 29.97 1015 10 16 N/A
7:15 am 07:15 Mostly Cloudy 63 17 61 16 94 94 N 5 7 29.97 1015 10 16 N/A
7:35 am 07:35 Mostly Cloudy 63 17 59 15 88 88 N 3 6 29.97 1015 10 16 N/A
7:55 am 07:55 Mostly Cloudy 63 17 59 15 88 88 N N/A 30.00 1016 10 16 N/A
8:15 am 08:15 Partly Cloudy 63 17 55 13 77 77 N N/A 30.00 1016 10 16 N/A
8:35 am 08:35 Sunny 63 17 54 12 73 73 N N/A 30.00 1016 10 16 N/A
8:55 am 08:55 Sunny 63 17 54 12 73 73 N N/A 30.00 1016 10 16 N/A
9:15 am 09:15 Sunny 63 17 52 11 68 68 N N/A 30.00 1016 10 16 N/A
9:35 am 09:35 Sunny 64 18 52 11 64 64 N 3 6 30.00 1016 10 16 N/A
9:55 am 09:55 Sunny 64 18 54 12 68 68 N N/A 30.00 1016 10 16 N/A
10:15 am 10:15 Sunny 68 20 54 12 60 60 N 3 6 30.00 1016 10 16 N/A
10:35 am 10:35 Mostly Cloudy 68 20 54 12 60 60 N N/A 30.00 1016 10 16 N/A
10:55 am 10:55 Cloudy 68 20 50 10 53 53 N N/A 30.00 1016 10 16 N/A
11:15 am 11:15 Mostly Cloudy 70 21 52 11 53 53 N 5 7 30.00 1016 10 16 N/A
11:35 am 11:35 Partly Cloudy 70 21 50 10 50 50 N 3 6 30.00 1016 10 16 N/A
11:55 am 11:55 Mostly Cloudy 72 22 48 9 44 44 N N/A 29.97 1015 10 16 N/A
12:15 pm 12:15 Mostly Cloudy 72 22 46 8 41 41 N N/A 29.97 1015 10 16 N/A
12:35 pm 12:35 Partly Cloudy 73 23 48 9 41 41 N N/A 29.97 1015 10 16 N/A
12:55 pm 12:55 Mostly Cloudy 73 23 50 10 44 44 NNW 3 6 29.97 1015 10 16 N/A
1:15 pm 13:15 Mostly Cloudy 75 24 50 10 41 41 W 3 6 29.97 1015 10 16 N/A
1:35 pm 13:35 Partly Cloudy 75 24 50 10 41 41 SE 5 7 29.94 1014 10 16 N/A
1:55 pm 13:55 Sunny 75 24 50 10 41 41 NNW 3 6 29.94 1014 10 16 N/A
2:15 pm 14:15 Sunny 77 25 50 10 39 39 WSW 6 9 29.94 1014 10 16 N/A
2:35 pm 14:35 Sunny 77 25 52 11 42 42 WSW 7 11 29.94 1014 10 16 N/A
2:55 pm 14:55 Sunny 77 25 52 11 42 42 S 6 9 29.91 1013 10 16 N/A
3:15 pm 15:15 Sunny 79 26 52 11 39 39 W 8 13 29.91 1013 10 16 N/A
3:35 pm 15:35 Sunny 79 26 52 11 39 39 SSW 6 9 29.91 1013 10 16 N/A
3:55 pm 15:55 Sunny 79 26 52 11 39 39 S 7 11 29.91 1013 10 16 N/A
4:15 pm 16:15 Partly Cloudy 79 26 52 11 39 39 SSE 8 13 29.91 1013 10 16 N/A
4:35 pm 16:35 Sunny 77 25 52 11 42 42 W 6 9 29.91 1013 10 16 N/A
4:55 pm 16:55 Sunny 79 26 54 12 42 42 S 7 11 29.91 1013 10 16 N/A
5:15 pm 17:15 Sunny 77 25 54 12 44 44 S 7 11 29.88 1012 10 16 N/A
5:35 pm 17:35 Sunny 77 25 54 12 44 44 S 7 11 29.88 1012 10 16 N/A
5:55 pm 17:55 Sunny 77 25 55 13 47 47 S 10 17 29.88 1012 10 16 N/A
6:35 pm 18:35 Sunny 75 24 55 13 50 50 S 6 9 29.91 1013 10 16 N/A
6:55 pm 18:55 Sunny 73 23 57 14 57 57 SSE 6 9 29.91 1013 10 16 N/A
7:15 pm 19:15 Clear 72 22 57 14 61 61 SSE 6 9 29.91 1013 10 16 N/A
7:35 pm 19:35 Clear 72 22 59 15 65 65 SSE 7 11 29.91 1013 10 16 N/A
7:55 pm 19:55 Clear 70 21 59 15 69 69 SSE 6 9 29.91 1013 10 16 N/A
8:15 pm 20:15 Clear 70 21 59 15 69 69 SSE 6 9 29.94 1014 10 16 N/A
8:35 pm 20:35 Clear 68 20 59 15 73 73 SSE 3 6 29.94 1014 10 16 N/A
8:55 pm 20:55 Clear 68 20 59 15 73 73 S 3 6 29.94 1014 10 16 N/A
9:15 pm 21:15 Clear 64 18 59 15 83 83 S 5 7 29.94 1014 10 16 N/A
9:35 pm 21:35 Clear 64 18 59 15 83 83 S 5 7 29.94 1014 10 16 N/A
9:55 pm 21:55 Clear 64 18 61 16 88 88 S 5 7 29.94 1014 10 16 N/A
10:15 pm 22:15 Clear 64 18 61 16 88 88 S 5 7 29.94 1014 10 16 N/A
10:35 pm 22:35 Clear 63 17 59 15 88 88 N N/A 29.97 1015 10 16 N/A
10:55 pm 22:55 Clear 61 16 59 15 94 94 N N/A 29.97 1015 10 16 N/A
11:15 pm 23:15 Clear 61 16 59 15 94 94 N N/A 29.97 1015 10 16 N/A
11:35 pm 23:35 Clear 61 16 59 15 94 94 N N/A 29.97 1015 10 16 N/A
11:55 pm 23:55 Clear 61 16 59 15 94 94 N N/A 29.97 1015 10 16 N/A

Powered by AerisWeather